SCP
0 0 0 0 0 0 0 0 0 0 0 0 0 0 0 0 0 0 0 0 0 0 0 0 0 0 0 0 0 0 0 0 0 0 0 0 0 0 0 0 0 0 0
0 0 0 0 0 0 0 0 0 0 0 0 0 0 0 0 0 0 0 0 0 0 0 0 0 0 0 0 0 0 0 0 0 0 0 0 0 0 0 0 0 0 0
0 0 0 0 0 0 0 0 0 0 0 0 0 0 0 0 0 0 0 0 0 0 0 0 0 0 0 0 0 0 0 0 0 0 0 0 0 0 0 0 0 0 0
0 0 0 0 0 0 0 0 0 0 0 0 0 0 0 0 0 0 0 0 0 0 0 0 0 0 0 0 0 0 0 0 0 0 0 0 0 0 0 0 0 0 0
0 0 0 0 0 0 0 0 0 0 0 0 0 0 0 0 0 0 0 0 0 0 0 0 0 0 0 0 0 0 0 0 0 0 0 0 0 0 0 0 0 0 0
0 0 0 0 0 0 0 0 0 0 0 0 0 0 0 0 0 0 0 0 0 0 0 0 0 0 0 0 0 0 0 0 0 0 0 0 0 0 0 0 0 0 0
0 0 0 0 0 0 0 0 0 0 0 0 0 0 0 0 0 0 0 0 0 0 0 0 0 0 0 0 0 0 0 0 0 0 0 0 0 0 0 0 0 0 0
0 0 0 0 0 0 0 0 0 0 0 0 0 0 0 0 0 0 0 0 0 0 0 0 0 0 0 0 0 0 0 0 0 0 0 0 0 0 0 0 0 0 0
0 0 0 0 0 0 0 0 0 0 0 0 0 0 0 0 0 0 0 0 0 0 0 0 0 0 0 0 0 0 0 0 0 0 0 0 0 0 0 0 0 0 0
0 0 0 0 0 0 0 0 0 0 0 0 0 0 0 0 0 0 0 0 0 0 0 0 0 0 0 0 0 0 0 0 0 0 0 0 0 0 0 0 0 0 0
0 0 0 0 0 0 0 0 0 0 0 0 0 0 0 0 0 0 0 0 0 0 0 0 0 0 0 0 0 0 0 0 0 0 0 0 0 0 0 0 0 0 0
0 0 0 0 0 0 0 0 0 0 0 0 0 0 0 0 0 0 0 0 0 0 0 0 0 0 0 0 0 0 0 0 0 0 0 0 0 0 0 0 0 0 0
0 0 0 0 0 0 0 0 0 0 0 0 0 0 0 0 0 0 0 0 0 0 0 0 0 0 0 0 0 0 0 0 0 0 0 0 0 0 0 0 0 0 0
0 0 0 0 0 0 0 0 0 0 0 0 0 0 0 0 0 0 0 0 0 0 0 0 0 0 0 0 0 0 0 0 0 0 0 0 0 0 0 0 0 0 0
0 0 0 0 0 0 0 0 0 0 0 0 0 0 0 0 0 0 0 0 0 0 0 0 0 0 0 0 0 0 0 0 0 0 0 0 0 0 0 0 0 0 0
0 0 0 0 0 0 0 0 0 0 0 0 0 0 0 0 0 0 0 0 0 0 0 0 0 0 0 0 0 0 0 0 0 0 0 0 0 0 0 0 0 0 0
0 0 0 0 0 0 0 0 0 0 0 0 0 0 0 0 0 0 0 0 0 0 0 0 0 0 0 0 0 0 0 0 0 0 0 0 0 0 0 0 0 0 0
0 0 0 0 0 0 0 0 0 0 0 0 0 0 0 0 0 0 0 0 0 0 0 0 0 0 0 0 0 0 0 0 0 0 0 0 0 0 0 0 0 0 0
0 0 0 0 0 0 0 0 0 0 0 0 0 0 0 0 0 0 0 0 0 0 0 0 0 0 0 0 0 0 0 0 0 0 0 0 0 0 0 0 0 0 0
0 0 0 0 0 0 0 0 0 0 0 0 0 0 0 0 0 0 0 0 0 0 0 0 0 0 0 0 0 0 0 0 0 0 0 0 0 0 0 0 0 0 0
0 0 0 0 0 0 0 0 0 0 0 0 0 0 0 0 0 0 0 0 0 0 0 0 0 0 0 0 0 0 0 0 0 0 0 0 0 0 0 0 0 0 0
0 0 0 0 0 0 0 0 0 0 0 0 0 0 0 0 0 0 0 0 0 0 0 0 0 0 0 0 0 0 0 0 0 0 0 0 0 0 0 0 0 0 0
0 0 0 0 0 0 0 0 0 0 0 0 0 0 0 0 0 0 0 0 0 0 0 0 0 0 0 0 0 0 0 0 0 0 0 0 0 0 0 0 0 0 0
0 0 0 0 0 0 0 0 0 0 0 0 0 0 0 0 0 0 0 0 0 0 0 0 0 0 0 0 0 0 0 0 0 0 0 0 0 0 0 0 0 0 0
0 0 0 0 0 0 0 0 0 0 0 0 0 0 0 0 0 0 0 0 0 0 0 0 0 0 0 0 0 0 0 0 0 0 0 0 0 0 0 0 0 0 0
0 0 0 0 0 0 0 0 0 0 0 0 0 0 0 0 0 0 0 0 0 0 0 0 0 0 0 0 0 0 0 0 0 0 0 0 0 0 0 0 0 0 0
Wind_Speed
8 7 7 6 6 5 4 4 3 4 4 4 5 5 6 7 7 7 8 9 11 11 11 11 13 11 10 8 8 9 10 10 16 16 10 8 7 8 8 9 9 10 10
7 7 7 7 6 6 5 5 4 4 4 4 5 5 6 6 7 8 9 9 10 11 11 12 13 10 11 10 9 10 10 10 12 18 13 8 8 8 9 9 8 8 9
6 7 7 7 6 6 5 5 5 5 4 4 5 5 6 6 7 8 8 9 10 11 11 12 12 10 11 9 9 10 9 8 10 12 14 9 7 4 6 6 8 8 8
6 7 8 7 6 6 5 5 5 5 5 6 6 6 6 7 7 7 8 9 10 10 10 11 11 11 11 10 9 9 8 9 9 10 12 10 6 3 3 6 7 6 7
6 7 7 6 6 6 6 6 6 5 6 6 6 6 7 6 6 8 9 9 10 11 10 10 11 11 11 10 8 9 8 8 8 9 10 9 7 3 4 4 7 6 5
7 7 6 6 6 6 6 6 6 6 6 6 6 7 7 6 9 12 11 10 9 10 10 10 9 9 10 12 14 14 12 10 9 8 9 10 10 7 5 4 5 5 4
5 5 5 6 6 6 7 7 7 7 7 7 7 7 8 9 12 13 12 10 10 10 10 9 7 6 8 8 10 11 11 12 13 10 11 11 10 7 6 7 5 5 4
4 5 5 6 6 6 6 7 7 7 7 7 8 9 9 9 12 13 13 10 9 9 9 9 9 9 7 8 7 7 7 7 7 6 7 8 7 6 5 5 4 2 1
4 5 5 5 6 7 7 8 7 7 8 8 8 9 9 10 12 13 13 7 7 9 8 8 8 9 9 10 7 7 7 5 6 7 7 7 8 7 5 2 1 1 0
4 5 5 5 6 7 8 8 7 7 8 8 8 8 9 9 12 13 12 6 7 7 6 6 6 8 9 9 5 5 6 5 3 4 4 4 4 4 5 3 1 1 1
5 5 6 6 6 7 7 7 7 8 8 8 9 8 8 8 11 12 12 6 6 7 6 5 5 8 8 8 6 4 5 4 3 3 2 2 3 3 4 4 4 2 1
5 6 6 7 6 6 7 8 7 8 8 8 8 9 6 6 7 10 12 10 9 6 6 5 5 7 6 6 4 4 4 3 2 2 2 2 3 3 4 4 5 5 5
6 6 7 7 7 7 7 8 8 7 7 7 7 8 7 5 6 10 10 11 10 6 4 6 6 5 4 3 5 5 4 2 2 2 2 3 3 3 3 3 4 5 7
6 7 7 7 8 7 6 6 7 7 7 7 7 8 7 7 6 5 5 5 5 4 3 2 2 3 3 3 3 4 3 3 3 2 2 3 3 3 3 3 3 3 3
6 7 7 7 8 8 7 7 8 8 8 9 8 7 8 8 7 9 7 5 3 2 1 1 1 2 2 2 3 3 3 3 3 3 3 3 3 3 3 3 3 3 2
7 7 6 6 7 7 8 9 11 12 15 16 15 12 8 10 12 11 9 8 6 3 1 1 1 1 2 2 2 3 3 4 4 3 3 3 3 3 3 3 3 3 3
6 7 6 7 7 7 8 8 9 9 9 10 11 11 10 10 10 8 6 4 3 2 1 1 0 1 1 2 2 2 3 3 3 3 3 3 3 3 3 3 3 3 3
7 7 7 7 7 8 8 8 8 9 9 6 6 7 7 6 5 4 2 1 1 1 1 1 1 1 1 1 2 2 2 3 3 3 3 3 3 3 3 3 3 3 2
7 6 6 7 8 8 8 9 8 9 9 7 5 5 4 4 2 3 2 1 1 1 1 1 1 1 1 1 2 2 2 2 3 3 3 3 3 2 2 2 2 2 2
6 8 8 8 8 8 8 8 8 8 8 7 6 5 3 2 2 1 1 0 1 2 2 2 2 1 1 1 1 1 2 2 2 2 2 2 2 2 2 2 2 2 2
6 7 8 8 8 8 8 8 8 7 7 6 5 4 4 3 2 2 1 1 1 2 2 2 2 1 1 1 1 1 1 1 1 1 1 2 2 1 1 1 1 1 1
6 6 6 7 7 7 8 8 7 7 6 6 4 3 2 1 1 2 1 1 1 1 1 1 1 1 1 1 0 1 1 0 0 0 0 1 0 1 1 1 1 1 1
6 7 7 7 7 8 7 7 6 6 5 4 3 2 2 2 2 2 2 1 1 1 1 1 1 1 1 1 1 1 1 1 1 1 1 1 0 0 0 0 0 1 1
6 6 7 6 6 6 6 6 5 5 4 3 3 2 2 2 2 2 2 1 1 1 1 1 2 2 2 2 1 1 1 1 2 2 2 2 2 1 1 1 2 2 2
5 5 5 5 5 5 5 5 4 4 3 3 2 2 2 2 2 2 2 2 2 2 2 2 2 2 3 4 3 3 3 4 3 3 3 3 3 3 2 2 2 2 2
4 5 5 4 4 5 4 4 4 3 3 3 2 2 2 2 2 2 2 2 2 2 3 3 4 4 5 4 5 6 6 7 7 6 5 4 4 4 4 3 4 4 3
Wind_Direction
81 83 82 76 70 67 57 37 11 351 338 324 314 305 297 292 287 278 272 274 271 270 268 265 264 262 259 252 245 243 242 243 265 279 276 272 248 244 250 248 251 253 254
76 78 74 69 64 59 48 32 13 358 345 331 320 309 303 299 294 286 282 279 276 275 275 274 272 271 266 263 258 253 251 245 256 274 279 276 260 250 255 256 254 251 253
72 75 70 60 52 47 36 23 12 360 348 340 330 319 312 305 299 291 287 284 281 279 279 278 278 276 272 268 266 264 262 258 255 267 277 279 272 260 259 260 259 259 257
65 65 59 46 37 30 22 14 7 358 350 343 333 322 313 307 300 298 295 290 286 283 280 278 277 274 272 272 270 268 268 267 264 267 274 280 276 264 253 265 267 256 256
58 53 45 35 27 20 12 2 355 350 343 334 327 321 315 308 303 306 302 293 289 287 283 279 277 276 273 272 271 274 272 270 270 270 275 282 281 272 264 259 270 278 263
51 43 29 20 14 8 358 347 342 339 334 328 322 317 314 308 310 307 303 297 291 288 288 287 284 278 275 272 269 269 268 269 273 273 277 278 284 284 283 273 274 276 272
46 34 19 9 2 354 344 339 337 332 328 323 319 315 309 306 310 308 304 298 291 288 289 290 289 283 279 280 280 278 275 271 268 272 277 281 289 292 288 278 269 268 271
38 23 10 359 348 339 334 329 326 322 318 314 312 309 306 305 310 309 309 299 292 290 290 289 290 292 289 286 285 282 280 279 279 276 276 285 290 293 280 275 274 265 34
23 7 354 343 333 329 324 322 319 315 310 307 303 303 302 303 309 310 311 301 294 294 294 292 290 291 295 293 288 284 287 290 299 293 291 300 310 316 318 305 255 207 307
359 342 332 327 320 314 311 310 308 305 299 301 297 296 294 295 302 306 308 297 294 296 297 293 289 293 301 301 291 287 290 303 314 319 323 334 339 347 350 336 315 288 30
337 325 321 319 311 302 301 298 300 298 297 295 294 293 290 288 296 301 303 295 291 295 296 299 301 306 306 306 299 294 300 309 312 321 333 350 5 17 21 24 20 11 11
330 321 316 312 306 301 297 296 294 293 293 293 294 295 290 285 288 298 301 296 294 288 290 296 303 311 316 326 332 339 330 323 322 334 355 11 18 23 29 37 42 44 46
323 313 308 305 299 295 293 294 293 287 285 289 291 293 296 296 294 298 298 297 293 287 285 291 304 320 336 349 6 5 356 350 351 1 16 23 26 34 38 48 54 60 61
312 308 305 303 301 297 289 283 281 280 280 280 283 286 292 293 294 297 294 294 289 284 290 309 333 2 11 19 13 15 15 16 14 20 27 33 35 38 39 34 37 38 48
308 301 301 297 297 298 289 278 278 270 264 273 277 278 284 289 295 300 300 294 288 276 289 312 330 344 4 16 22 22 20 25 29 28 35 38 38 39 35 28 28 27 37
307 305 302 299 297 293 294 291 275 272 277 273 270 271 272 278 290 292 296 295 286 248 236 262 326 358 5 9 15 23 24 22 20 26 37 37 38 37 36 32 31 34 39
295 296 294 292 290 289 287 288 295 292 281 282 280 277 275 283 290 292 290 298 291 217 200 170 116 48 31 29 27 27 26 21 16 28 35 33 34 37 37 35 34 36 38
288 284 281 282 283 283 280 279 280 284 287 284 289 290 286 286 293 303 285 275 33 60 129 136 116 82 60 46 35 31 33 31 30 30 33 30 28 33 38 34 33 30 25
288 284 282 282 280 278 278 276 273 273 274 276 277 280 288 289 305 346 337 248 173 143 123 111 97 89 72 57 48 41 40 40 35 32 35 31 25 30 38 32 30 37 14
278 278 281 282 282 279 277 275 273 272 271 269 269 271 274 253 245 280 345 201 141 135 134 126 111 97 87 75 66 60 58 54 46 39 35 30 23 25 37 29 21 11 4
286 285 281 279 275 276 277 275 274 271 269 268 270 272 255 241 224 197 174 147 139 138 137 131 125 121 103 91 83 83 77 60 47 35 33 32 26 22 17 16 17 10 5
280 282 282 281 281 279 280 279 276 273 269 266 270 280 255 218 199 180 161 139 116 106 116 136 139 128 124 133 148 151 150 140 112 79 41 41 20 21 4 14 5 353 347
278 282 283 282 281 282 281 278 276 273 269 263 260 256 239 211 189 176 160 148 139 134 129 148 157 159 157 186 231 229 217 214 220 217 217 223 234 252 264 267 262 291 294
283 283 284 285 285 284 283 284 281 278 274 267 258 248 233 209 194 183 172 165 167 168 176 191 199 200 201 214 223 227 230 228 217 213 218 222 227 233 233 232 243 248 254
287 286 286 286 287 286 286 286 285 282 278 271 262 249 233 211 201 195 187 188 197 203 210 214 211 213 220 229 234 239 240 238 230 214 207 215 220 222 224 230 233 233 236
291 291 289 289 287 287 285 284 283 282 278 273 264 254 239 225 217 210 204 205 213 219 223 226 226 228 234 238 241 242 241 236 227 219 211 210 212 216 212 220 224 227 229